Weather History for KCMR - October, 2012

Change the Weather History Date:

Tuesday, October 23, 2012

  Actual Average (KFLG) Record (KFLG)
Temperature  
Mean Temperature 52 °F 44 °F  
Max Temperature 62 °F 60 °F 76 °F (2003)
Min Temperature 42 °F 29 °F 10 °F (1906)
Degree Days  
Heating Degree Days 13 21  
Month to date heating degree days 390  
Since 1 July heating degree days 707  
Cooling Degree Days 0 0  
Month to date cooling degree days 0  
Year to date cooling degree days 117  
Growing Degree Days 2 (Base 50)    
Moisture  
Dew Point 36 °F    
Average Humidity 56    
Maximum Humidity 87    
Minimum Humidity 24    
Precipitation  
Precipitation 0.00 in 0.05 in 0.57 in (1921)
Month to date precipitation 1.25  
Year to date precipitation 17.82  
Snow  
Snow 0.00 in 0.10 in T in (1941)
Month to date snowfall 0.8  
Since 1 July snowfall 0.8  
Snow Depth -    
Sea Level Pressure  
Sea Level Pressure 30.10 in    
Wind  
Wind Speed 16 mph (South)    
Max Wind Speed 25 mph    
Max Gust Speed 33 mph    
Visibility 10 miles    
Events      
T = Trace of Precipitation, MM = Missing Value Source: NWS Daily Summary

Daily Weather History Graph

Daily Weather History Graph

Search for Another Location

Airport or City:

Trip Planner

Search our weather history database for the weather conditions in past years. The results will help you decide how hot, cold, wet, or windy it might be!

Date:

Astronomy

Oct. 23, 2012 Rise Set
Actual Time 6:42 AM MST 5:43 PM MST
Civil Twilight 6:16 AM MST 6:08 PM MST
Nautical Twilight 5:46 AM MST 6:38 PM MST
Astronomical Twilight 5:17 AM MST 7:08 PM MST
Moon 2:17 PM MST (10/23) 12:51 AM MST (10/23)
Length of Visible Light 11h 52m
Length of Day
11h 00m
Waxing Gibbous, 67% of the Moon is Illuminated
Oct 23
Waxing Gibbous
Oct 29
Full
Nov 6
Last Quarter
Nov 13
New
Nov 20
First Quarter

Hourly Weather History & Observations

Time (MST) Temp. Windchill Dew Point Humidity Pressure Visibility Wind Dir Wind Speed Gust Speed Precip Events Conditions
12:15 AM 48.2 °F - 41.0 °F 76% 30.11 in 10.0 mi South 17.3 mph 25.3 mph N/A   Clear
12:35 AM 48.2 °F - 41.0 °F 76% 30.11 in 10.0 mi South 16.1 mph 26.5 mph N/A   Clear
12:55 AM 48.2 °F - 41.0 °F 76% 30.11 in 10.0 mi South 17.3 mph 24.2 mph N/A   Clear
1:15 AM 48.2 °F - 41.0 °F 76% 30.10 in 10.0 mi South 20.7 mph 29.9 mph N/A   Clear
1:35 AM 48.2 °F - 41.0 °F 76% 30.10 in 10.0 mi South 19.6 mph 31.1 mph N/A   Clear
2:15 AM 48.2 °F - 39.2 °F 71% 30.10 in 10.0 mi SSW 19.6 mph 31.1 mph N/A   Clear
2:35 AM 48.2 °F - 39.2 °F 71% 30.10 in 10.0 mi SSW 19.6 mph 27.6 mph N/A   Clear
2:55 AM 48.2 °F - 41.0 °F 76% 30.10 in 10.0 mi South 18.4 mph 27.6 mph N/A   Clear
3:15 AM 46.4 °F 39.0 °F 41.0 °F 81% 30.10 in 10.0 mi SSW 19.6 mph 24.2 mph N/A   Clear
4:15 AM 48.2 °F - 35.6 °F 62% 30.09 in 10.0 mi South 20.7 mph 27.6 mph N/A   Clear
4:35 AM 48.2 °F - 33.8 °F 58% 30.09 in 10.0 mi South 16.1 mph 26.5 mph N/A   Clear
4:55 AM 48.2 °F - 33.8 °F 58% 30.07 in 10.0 mi South 15.0 mph 27.6 mph N/A   Clear
5:15 AM 48.2 °F - 32.0 °F 54% 30.08 in 10.0 mi South 17.3 mph 24.2 mph N/A   Clear
5:35 AM 48.2 °F - 32.0 °F 54% 30.09 in 10.0 mi South 17.3 mph 26.5 mph N/A   Clear
5:55 AM 48.2 °F - 33.8 °F 58% 30.09 in 10.0 mi South 16.1 mph 20.7 mph N/A   Clear
6:15 AM 46.4 °F 40.1 °F 32.0 °F 57% 30.10 in 10.0 mi South 15.0 mph - N/A   Clear
6:35 AM 48.2 °F - 32.0 °F 54% 30.11 in 10.0 mi South 9.2 mph 23.0 mph N/A   Clear
6:55 AM 44.6 °F 40.2 °F 37.4 °F 76% 30.12 in 10.0 mi SE 8.1 mph - N/A   Clear
7:15 AM 42.8 °F 37.0 °F 39.2 °F 87% 30.12 in 10.0 mi SE 10.4 mph - N/A   Clear
7:35 AM 44.6 °F 39.2 °F 39.2 °F 81% 30.12 in 10.0 mi SE 10.4 mph - N/A   Clear
7:55 AM 48.2 °F - 39.2 °F 71% 30.13 in 10.0 mi SE 9.2 mph - N/A   Clear
8:15 AM 50.0 °F - 37.4 °F 62% 30.13 in 10.0 mi SSE 9.2 mph - N/A   Clear
8:35 AM 51.8 °F - 33.8 °F 50% 30.14 in 10.0 mi South 16.1 mph 23.0 mph N/A   Clear
8:55 AM 53.6 °F - 35.6 °F 51% 30.15 in 10.0 mi SSW 9.2 mph - N/A   Clear
9:35 AM 53.6 °F - 37.4 °F 54% 30.15 in 10.0 mi SSW 13.8 mph 20.7 mph N/A   Clear
9:55 AM 55.4 °F - 37.4 °F 51% 30.15 in 10.0 mi South 16.1 mph 23.0 mph N/A   Clear
10:15 AM 55.4 °F - 37.4 °F 51% 30.15 in 10.0 mi SW 17.3 mph 25.3 mph N/A   Clear
10:35 AM 55.4 °F - 35.6 °F 47% 30.15 in 10.0 mi SSW 18.4 mph 24.2 mph N/A   Clear
10:55 AM 57.2 °F - 37.4 °F 48% 30.14 in 10.0 mi SW 17.3 mph 25.3 mph N/A   Clear
11:15 AM 57.2 °F - 37.4 °F 48% 30.14 in 10.0 mi SW 16.1 mph 27.6 mph N/A   Clear
11:35 AM 57.2 °F - 37.4 °F 48% 30.14 in 10.0 mi SSW 16.1 mph 24.2 mph N/A   Clear
11:55 AM 59.0 °F - 35.6 °F 42% 30.13 in 10.0 mi South 16.1 mph 25.3 mph N/A   Clear
12:15 PM 59.0 °F - 37.4 °F 45% 30.13 in 10.0 mi South 17.3 mph 25.3 mph N/A   Clear
12:35 PM 60.8 °F - 35.6 °F 39% 30.11 in 10.0 mi South 23.0 mph 27.6 mph N/A   Clear
12:55 PM 60.8 °F - 33.8 °F 36% 30.10 in 10.0 mi South 18.4 mph 24.2 mph N/A   Clear
1:15 PM 62.6 °F - 32.0 °F 32% 30.09 in 10.0 mi South 23.0 mph 31.1 mph N/A   Clear
1:35 PM 62.6 °F - 32.0 °F 32% 30.08 in 10.0 mi South 17.3 mph 26.5 mph N/A   Clear
1:55 PM 62.6 °F - 28.4 °F 27% 30.07 in 10.0 mi SSW 25.3 mph 33.4 mph N/A   Clear
2:15 PM 62.6 °F - 28.4 °F 27% 30.07 in 10.0 mi SSW 20.7 mph 31.1 mph N/A   Clear
2:35 PM 62.6 °F - 32.0 °F 32% 30.06 in 10.0 mi SSW 16.1 mph 28.8 mph N/A   Clear
2:55 PM 62.6 °F - 26.6 °F 26% 30.06 in 10.0 mi SSW 21.9 mph 31.1 mph N/A   Clear
3:15 PM 62.6 °F - 28.4 °F 27% 30.06 in 10.0 mi South 21.9 mph 32.2 mph N/A   Clear
3:35 PM 62.6 °F - 24.8 °F 24% 30.07 in 10.0 mi SW 23.0 mph 32.2 mph N/A   Clear
3:55 PM 62.6 °F - 28.4 °F 27% 30.06 in 10.0 mi SSW 20.7 mph 28.8 mph N/A   Clear
4:15 PM 60.8 °F - 24.8 °F 25% 30.06 in 10.0 mi SSW 20.7 mph 27.6 mph N/A   Clear
4:35 PM 59.0 °F - 32.0 °F 36% 30.06 in 10.0 mi SSW 21.9 mph 32.2 mph N/A   Clear
4:55 PM 57.2 °F - 32.0 °F 38% 30.06 in 10.0 mi SSW 17.3 mph 28.8 mph N/A   Clear
5:15 PM 57.2 °F - 32.0 °F 38% 30.07 in 10.0 mi SSW 16.1 mph 25.3 mph N/A   Clear
5:35 PM 55.4 °F - 35.6 °F 47% 30.08 in 10.0 mi SSW 12.7 mph 17.3 mph N/A   Clear
5:55 PM 53.6 °F - 35.6 °F 51% 30.07 in 10.0 mi SSW 13.8 mph 19.6 mph N/A   Clear
6:15 PM 53.6 °F - 35.6 °F 51% 30.08 in 10.0 mi SSW 10.4 mph 21.9 mph N/A   Clear
6:35 PM 51.8 °F - 35.6 °F 54% 30.09 in 10.0 mi South 13.8 mph 18.4 mph N/A   Clear
6:55 PM 51.8 °F - 37.4 °F 58% 30.09 in 10.0 mi SSW 12.7 mph 16.1 mph N/A   Clear
7:15 PM 50.0 °F - 35.6 °F 58% 30.10 in 10.0 mi SSW 10.4 mph - N/A   Clear
7:35 PM 50.0 °F - 35.6 °F 58% 30.10 in 10.0 mi South 12.7 mph 17.3 mph N/A   Clear
8:15 PM 50.0 °F - 37.4 °F 62% 30.10 in 10.0 mi South 9.2 mph 18.4 mph N/A   Clear
8:35 PM 48.2 °F - 37.4 °F 66% 30.10 in 10.0 mi SSE 8.1 mph - N/A   Clear
8:55 PM 46.4 °F 43.5 °F 37.4 °F 71% 30.10 in 10.0 mi SSE 5.8 mph - N/A   Clear
9:15 PM 46.4 °F 42.4 °F 37.4 °F 71% 30.11 in 10.0 mi SE 8.1 mph - N/A   Clear
9:35 PM 46.4 °F 43.5 °F 37.4 °F 71% 30.11 in 10.0 mi SE 5.8 mph - N/A   Clear
9:55 PM 46.4 °F 44.3 °F 37.4 °F 71% 30.11 in 10.0 mi SSE 4.6 mph - N/A   Clear
10:15 PM 46.4 °F 42.9 °F 39.2 °F 76% 30.10 in 10.0 mi South 6.9 mph - N/A   Clear
10:35 PM 44.6 °F 40.7 °F 39.2 °F 81% 30.10 in 10.0 mi SSE 6.9 mph - N/A   Clear
10:55 PM 44.6 °F 40.2 °F 39.2 °F 81% 30.10 in 10.0 mi SSE 8.1 mph - N/A   Clear
11:15 PM 44.6 °F 40.2 °F 39.2 °F 81% 30.09 in 10.0 mi South 8.1 mph - N/A   Clear
11:35 PM 46.4 °F 41.1 °F 39.2 °F 76% 30.08 in 10.0 mi SSE 11.5 mph - N/A   Clear
11:55 PM 46.4 °F 42.4 °F 39.2 °F 76% 30.08 in 10.0 mi SE 8.1 mph - N/A   Clear